Temp
84 85 84 84 83 83 83 83 82 82 82 83 84 84 85 85 85 84 83 71 72 74 75 74 74 74 73 74 73 73 73 72 73 74 76 76 77 77 76 76 76 75 75
82 78 82 83 83 83 83 83 83 82 82 83 82 82 83 84 83 82 81 79 71 72 74 74 73 73 73 72 72 72 72 72 72 72 72 73 73 74 74 74 74 75 75
69 72 75 79 82 84 82 82 83 82 81 81 81 82 81 82 81 81 80 79 78 70 72 73 73 73 73 72 71 70 71 71 71 71 71 71 71 72 72 73 73 74 75
69 67 67 68 71 73 77 79 78 77 78 79 80 81 81 81 81 81 80 78 78 79 72 71 72 72 73 72 71 70 70 70 70 70 70 70 70 71 71 72 72 72 73
77 77 73 68 68 68 74 75 77 76 77 77 78 80 80 80 79 81 79 77 76 76 77 72 70 70 72 72 72 71 70 69 69 69 69 68 69 69 70 70 71 71 72
76 75 75 75 72 66 65 71 74 77 75 77 78 78 79 79 78 78 79 79 77 74 74 75 73 73 70 71 72 72 71 70 69 69 68 68 68 68 69 69 69 70 70
75 74 75 74 73 70 67 65 67 71 72 75 73 74 76 79 79 77 78 79 77 75 75 74 74 75 74 70 70 71 72 71 70 70 69 68 68 68 68 68 68 69 69
74 74 73 73 73 71 70 67 61 63 67 70 68 69 68 74 76 79 78 77 78 77 75 75 75 75 75 74 71 69 70 72 72 71 70 69 69 68 68 68 68 68 69
74 73 73 73 73 72 70 69 68 60 55 59 66 61 63 66 75 77 77 77 76 76 76 76 75 75 75 75 71 68 65 68 70 72 72 71 70 70 69 68 69 68 68
73 73 73 72 72 72 71 70 71 68 62 57 63 65 66 70 69 68 73 74 75 75 74 74 75 75 75 75 71 69 66 66 67 70 71 71 71 71 70 69 69 68 68
72 72 72 71 70 70 71 70 69 70 68 64 58 61 59 59 67 64 67 70 72 73 75 75 74 75 75 74 73 70 66 66 66 68 69 70 71 71 70 70 70 69 69
70 71 70 70 70 69 68 69 69 68 68 68 66 61 59 60 63 59 60 69 72 74 74 74 74 74 74 73 71 68 65 65 65 66 67 68 70 70 70 70 70 70 69
67 68 69 68 68 68 68 67 67 67 67 66 66 66 62 59 61 62 62 61 67 74 72 74 74 74 73 73 72 66 65 65 65 66 66 67 68 68 69 69 69 69 69
66 67 68 67 68 68 68 67 66 66 67 66 65 66 66 65 62 63 62 58 60 67 70 69 72 73 73 73 71 65 69 64 65 65 66 66 66 67 67 68 68 68 68
65 65 65 65 66 66 66 66 65 66 66 67 66 66 66 67 67 65 65 61 62 53 64 71 69 73 73 73 71 71 68 64 64 64 64 65 65 66 66 67 67 67 67
63 63 63 63 64 65 66 65 64 66 65 66 66 65 65 66 67 67 65 59 62 60 55 70 74 73 72 72 70 70 70 65 63 64 63 63 64 64 65 65 65 65 65
63 62 62 62 63 63 65 64 64 65 64 64 65 64 64 65 64 66 66 64 61 60 52 63 70 74 71 69 70 67 70 69 67 63 63 62 62 62 63 63 63 63 63
62 62 61 61 62 63 63 63 62 64 63 62 63 63 62 65 63 64 64 63 61 62 53 52 64 69 67 68 69 65 67 69 68 64 63 62 61 61 61 61 61 61 61
60 61 60 59 60 61 61 62 63 62 63 63 63 63 62 62 62 63 63 63 62 62 58 51 53 60 66 68 66 66 66 66 68 64 62 62 61 61 60 60 59 59 59
57 58 59 58 58 59 60 61 61 61 61 61 62 63 62 61 61 61 62 62 62 57 56 50 48 50 62 63 63 62 60 63 64 67 63 63 62 60 60 60 59 58 57
56 56 56 57 57 57 58 55 56 59 60 60 61 62 61 61 60 60 61 61 60 57 53 52 46 50 56 59 57 61 61 62 63 65 63 64 63 62 62 60 59 58 57
52 53 52 53 53 56 56 56 56 58 59 59 58 60 61 59 59 58 58 59 59 54 53 51 47 51 56 59 58 61 61 59 57 66 61 61 64 61 63 64 61 59 58
50 50 52 51 49 53 55 54 54 55 57 59 59 59 59 61 59 59 58 58 58 59 57 56 48 52 52 59 60 60 59 59 59 63 61 57 63 59 63 64 58 57 57
47 48 50 51 50 52 53 53 53 54 55 57 58 58 58 58 59 58 54 52 56 59 56 55 52 54 55 60 59 62 60 61 63 64 60 54 61 59 63 64 58 56 56
43 46 48 49 49 51 53 52 52 53 52 55 57 57 57 56 57 56 52 51 53 56 60 57 56 54 55 56 59 59 59 57 56 57 60 56 58 58 61 61 63 56 55
43 43 43 47 48 48 51 52 52 52 52 54 56 56 54 54 55 54 52 51 50 54 56 56 52 53 54 54 59 62 60 56 56 56 61 55 56 56 50 59 61 62 59
MSLP
1015.80 1015.71 1015.76 1015.86 1016.05 1016.10 1016.08 1015.86 1016.03 1016.06 1016.19 1016.07 1015.95 1015.80 1015.48 1015.44 1015.49 1015.65 1015.95 1016.87 1017.04 1017.06 1017.10 1017.26 1017.34 1017.38 1017.46 1017.54 1017.68 1017.45 1017.65 1017.73 1017.69 1017.51 1017.57 1017.75 1017.88 1018.02 1018.16 1018.32 1018.49 1018.63 1018.83
1015.70 1016.10 1015.85 1015.68 1015.77 1015.85 1015.87 1015.71 1015.57 1015.65 1015.63 1015.66 1015.59 1015.75 1015.54 1015.43 1015.53 1015.73 1015.86 1016.17 1016.85 1016.92 1016.97 1017.11 1017.25 1017.35 1017.45 1017.55 1017.66 1017.69 1017.85 1017.89 1017.95 1017.93 1017.97 1018.02 1018.05 1018.09 1018.12 1018.29 1018.49 1018.47 1018.53
1016.72 1016.48 1016.19 1015.96 1015.41 1015.43 1015.64 1015.61 1015.46 1015.43 1015.43 1015.43 1015.35 1015.23 1015.31 1015.22 1015.32 1015.41 1015.68 1015.92 1016.09 1016.75 1016.81 1016.94 1017.14 1017.31 1017.42 1017.55 1017.79 1017.92 1017.97 1018.02 1018.13 1018.15 1018.16 1018.23 1018.27 1018.31 1018.40 1018.44 1018.51 1018.39 1018.33
1017.07 1016.92 1016.75 1016.41 1016.22 1016.02 1015.81 1015.53 1015.54 1015.46 1015.27 1015.03 1014.98 1014.90 1014.90 1015.01 1014.94 1014.99 1015.25 1015.55 1015.74 1015.75 1016.47 1016.74 1016.93 1017.09 1017.23 1017.45 1017.74 1017.95 1018.08 1018.14 1018.21 1018.28 1018.32 1018.37 1018.36 1018.49 1018.60 1018.58 1018.61 1018.68 1018.65
1016.59 1016.18 1016.09 1016.37 1016.29 1015.98 1015.61 1015.50 1015.23 1015.24 1014.94 1014.83 1014.70 1014.50 1014.57 1014.55 1014.65 1014.64 1014.72 1015.20 1015.43 1015.60 1015.64 1016.12 1016.62 1016.82 1016.96 1017.16 1017.45 1017.73 1017.96 1018.11 1018.20 1018.31 1018.40 1018.52 1018.59 1018.60 1018.75 1018.73 1018.71 1018.80 1018.86
1016.71 1016.41 1015.94 1015.67 1015.77 1016.03 1015.89 1015.34 1015.02 1014.76 1014.84 1014.49 1014.31 1014.09 1014.02 1014.16 1014.26 1014.23 1014.23 1014.44 1014.80 1015.33 1015.47 1015.57 1016.01 1016.25 1016.65 1016.77 1017.01 1017.30 1017.62 1017.92 1018.07 1018.23 1018.35 1018.50 1018.59 1018.66 1018.68 1018.78 1018.87 1018.88 1018.88
1016.74 1016.47 1015.96 1015.65 1015.46 1015.53 1015.56 1015.50 1015.14 1014.57 1014.42 1014.55 1014.36 1013.85 1013.43 1013.36 1013.38 1013.58 1013.72 1013.77 1013.97 1014.54 1014.93 1015.20 1015.43 1015.44 1015.77 1016.38 1016.55 1016.79 1017.03 1017.42 1017.73 1017.91 1018.16 1018.31 1018.45 1018.60 1018.66 1018.76 1018.89 1018.93 1018.92
1016.62 1016.32 1015.91 1015.59 1015.29 1015.11 1015.07 1015.15 1015.34 1014.79 1014.23 1014.38 1014.09 1013.79 1012.72 1012.32 1012.41 1012.31 1012.67 1012.92 1013.15 1013.63 1014.07 1014.42 1014.72 1014.94 1015.13 1015.38 1015.83 1016.29 1016.57 1016.74 1017.00 1017.42 1017.67 1018.01 1018.17 1018.39 1018.54 1018.65 1018.75 1018.86 1018.90
1016.36 1016.03 1015.73 1015.36 1015.06 1014.87 1014.64 1014.54 1014.48 1014.89 1014.66 1014.25 1014.18 1013.99 1012.98 1011.50 1010.76 1011.18 1011.52 1012.10 1012.44 1012.71 1013.20 1013.55 1013.94 1014.22 1014.55 1014.85 1015.31 1015.81 1016.21 1016.45 1016.64 1016.79 1017.00 1017.38 1017.76 1017.97 1018.22 1018.42 1018.55 1018.63 1018.74
1015.95 1015.73 1015.42 1015.12 1014.85 1014.56 1014.22 1013.97 1013.86 1013.86 1014.30 1013.95 1013.71 1013.71 1013.25 1012.46 1010.62 1010.70 1011.09 1011.57 1011.96 1012.01 1012.27 1012.74 1013.04 1013.46 1013.89 1014.17 1014.61 1015.00 1015.45 1015.95 1016.33 1016.56 1016.70 1016.93 1017.20 1017.52 1017.74 1018.01 1018.21 1018.41 1018.49
1015.48 1015.18 1014.95 1014.73 1014.48 1014.21 1013.87 1013.62 1013.47 1013.13 1013.07 1013.29 1013.42 1012.95 1012.90 1012.71 1012.15 1011.62 1010.31 1010.70 1011.42 1011.60 1011.59 1011.66 1012.19 1012.66 1013.06 1013.47 1013.83 1014.35 1015.00 1015.42 1015.81 1016.14 1016.38 1016.56 1016.75 1017.08 1017.35 1017.52 1017.78 1018.08 1018.21
1014.88 1014.67 1014.49 1014.15 1013.89 1013.76 1013.62 1013.29 1012.98 1012.78 1012.54 1012.21 1012.43 1012.42 1012.16 1011.78 1011.42 1011.58 1010.94 1010.10 1009.69 1010.06 1010.96 1011.22 1011.27 1011.80 1012.27 1012.74 1013.14 1013.50 1014.22 1014.83 1015.27 1015.62 1015.91 1016.16 1016.36 1016.69 1016.98 1017.14 1017.33 1017.58 1017.79
1014.16 1013.90 1013.76 1013.63 1013.35 1013.09 1012.94 1012.95 1012.60 1012.28 1011.99 1011.69 1011.50 1011.34 1011.63 1011.53 1011.54 1011.21 1010.74 1010.27 1009.74 1009.10 1009.91 1010.49 1010.70 1010.83 1011.47 1012.00 1012.35 1013.00 1013.56 1014.08 1014.53 1014.97 1015.34 1015.67 1015.96 1016.29 1016.57 1016.78 1016.95 1017.13 1017.29
1013.60 1013.43 1013.17 1013.04 1012.78 1012.53 1012.18 1012.05 1011.88 1011.61 1011.45 1011.17 1010.96 1010.81 1010.55 1010.79 1010.86 1011.03 1010.40 1010.49 1009.92 1008.99 1009.12 1009.47 1010.00 1010.21 1010.51 1011.08 1011.52 1012.23 1012.66 1013.39 1013.80 1014.23 1014.68 1015.08 1015.45 1015.84 1016.17 1016.39 1016.57 1016.78 1016.98
1013.18 1012.90 1012.69 1012.30 1011.94 1011.67 1011.43 1011.19 1011.00 1010.67 1010.55 1010.40 1010.28 1010.14 1010.00 1009.83 1009.77 1010.17 1010.01 1010.06 1009.74 1009.39 1008.09 1008.37 1009.18 1009.56 1009.81 1010.14 1010.76 1011.57 1012.09 1012.43 1013.02 1013.56 1014.06 1014.48 1014.91 1015.29 1015.65 1015.93 1016.17 1016.42 1016.65
1012.49 1012.06 1011.85 1011.45 1010.96 1010.66 1010.52 1010.40 1010.13 1009.85 1009.79 1009.59 1009.51 1009.38 1009.28 1009.08 1009.01 1009.05 1009.38 1009.86 1009.57 1009.35 1008.51 1008.29 1007.59 1008.48 1009.36 1009.48 1009.99 1010.85 1011.25 1011.64 1012.39 1012.82 1013.37 1013.89 1014.33 1014.80 1015.19 1015.50 1015.80 1016.05 1016.29
1011.65 1011.18 1010.95 1010.50 1009.92 1009.68 1009.51 1009.35 1009.23 1008.99 1008.70 1008.74 1008.80 1008.67 1008.63 1008.77 1008.51 1008.38 1008.37 1008.92 1009.08 1009.01 1009.07 1008.77 1008.19 1007.90 1008.83 1009.29 1009.46 1010.54 1010.73 1011.30 1011.73 1012.26 1012.69 1013.28 1013.84 1014.33 1014.65 1014.95 1015.31 1015.60 1015.85
1010.77 1010.30 1010.06 1009.72 1008.99 1008.72 1008.66 1008.45 1008.28 1008.11 1007.97 1007.81 1007.88 1007.92 1007.89 1007.97 1007.95 1007.94 1007.92 1008.07 1008.53 1008.69 1008.73 1008.84 1008.20 1007.98 1008.52 1009.02 1008.91 1009.65 1010.19 1010.74 1011.14 1011.68 1012.21 1012.69 1013.25 1013.68 1014.04 1014.37 1014.71 1015.04 1015.35
1009.86 1009.45 1009.13 1008.70 1008.23 1007.86 1007.76 1007.60 1007.49 1007.36 1007.19 1007.05 1007.04 1007.08 1007.20 1007.33 1007.25 1007.19 1007.16 1007.33 1007.71 1008.11 1008.75 1008.97 1008.53 1008.32 1008.20 1008.49 1008.88 1009.03 1009.59 1010.31 1010.58 1011.12 1011.98 1012.24 1012.63 1013.01 1013.38 1013.66 1013.97 1014.33 1014.65
1009.33 1008.67 1008.03 1007.70 1007.52 1007.27 1006.97 1006.78 1006.71 1006.64 1006.51 1006.60 1006.47 1006.39 1006.54 1006.68 1006.67 1006.71 1006.61 1006.68 1006.96 1007.79 1008.24 1008.63 1008.64 1008.57 1008.04 1008.30 1008.98 1008.42 1008.81 1009.76 1010.13 1010.59 1011.43 1011.62 1012.02 1012.32 1012.57 1012.81 1013.17 1013.43 1013.68
1008.71 1008.12 1007.54 1007.02 1006.69 1006.49 1006.49 1006.56 1006.57 1005.73 1005.61 1005.68 1005.71 1005.78 1005.92 1006.06 1006.21 1006.44 1006.30 1006.08 1006.28 1006.86 1007.56 1007.81 1008.04 1008.12 1007.69 1007.50 1008.55 1007.98 1008.01 1008.68 1009.45 1009.91 1010.44 1010.81 1011.24 1011.53 1011.47 1011.97 1012.14 1012.42 1012.70
1008.22 1007.52 1006.82 1006.23 1005.81 1005.56 1005.45 1005.43 1005.41 1004.80 1004.61 1004.81 1004.95 1005.10 1005.28 1005.47 1005.63 1005.91 1005.97 1005.96 1006.03 1006.22 1006.65 1007.02 1007.23 1007.10 1006.82 1006.62 1007.95 1007.24 1007.44 1007.58 1008.27 1008.96 1009.62 1009.97 1010.21 1010.34 1010.41 1010.45 1010.77 1011.28 1011.60
1007.25 1006.49 1005.72 1005.38 1005.36 1004.99 1004.46 1004.57 1004.53 1004.61 1004.12 1003.95 1004.00 1004.01 1004.23 1004.45 1004.72 1004.83 1004.84 1004.96 1005.04 1004.94 1005.47 1005.81 1006.41 1006.07 1006.26 1005.63 1006.59 1006.75 1006.57 1006.85 1007.27 1008.08 1008.97 1009.29 1009.42 1009.54 1009.66 1009.67 1010.16 1010.62 1010.91
1006.44 1005.62 1004.85 1004.36 1004.20 1003.99 1003.72 1003.75 1003.67 1003.67 1003.50 1003.19 1003.23 1003.41 1003.51 1003.59 1003.73 1003.89 1004.41 1004.50 1004.06 1003.80 1004.27 1004.85 1005.21 1005.40 1005.59 1005.31 1005.56 1005.88 1005.80 1006.26 1006.99 1007.51 1008.69 1008.79 1008.78 1008.67 1008.79 1008.78 1009.14 1009.68 1010.13
1005.60 1004.84 1004.13 1003.70 1003.30 1002.91 1002.63 1002.84 1002.84 1002.71 1002.60 1002.42 1002.54 1002.76 1002.82 1002.71 1002.88 1003.23 1003.54 1003.62 1003.54 1003.14 1003.08 1003.69 1004.28 1004.83 1005.45 1005.34 1005.45 1005.65 1005.56 1005.83 1006.32 1006.90 1007.72 1008.36 1008.37 1008.24 1008.23 1008.10 1008.09 1008.54 1009.11
1004.62 1004.18 1003.64 1002.95 1002.56 1002.19 1002.02 1001.92 1002.09 1001.90 1001.65 1001.54 1001.64 1001.69 1001.91 1002.09 1002.23 1002.52 1002.63 1002.64 1002.51 1002.20 1002.50 1002.92 1003.41 1004.06 1004.53 1004.92 1005.14 1004.95 1005.02 1005.13 1005.63 1006.10 1006.55 1007.40 1007.86 1008.15 1008.16 1007.54 1007.47 1007.46 1008.10
Wind_Speed
7 6 6 6 6 6 6 6 6 6 7 7 7 7 8 7 7 4 4 5 4 4 5 3 4 5 2 2 3 8 5 5 6 7 6 8 8 8 8 8 8 8 8
7 7 8 7 7 7 7 7 7 7 6 7 8 8 8 7 7 7 5 5 5 6 7 7 6 6 5 2 2 4 2 3 3 4 5 5 6 6 2 2 2 9 12
8 8 7 9 8 7 9 8 8 7 7 7 9 8 8 9 8 8 7 6 7 9 8 9 8 8 8 6 3 2 3 4 2 2 3 3 4 5 5 4 4 9 6
7 6 6 7 7 7 8 8 8 8 8 8 8 8 8 8 10 10 8 7 7 6 10 11 10 10 10 9 7 6 5 5 4 3 3 3 3 3 3 3 3 4 4
9 9 7 7 6 6 8 9 9 9 9 9 8 8 8 8 9 9 11 10 10 8 7 12 12 11 11 11 11 9 8 7 6 5 4 3 2 2 1 1 3 2 1
10 9 7 8 7 7 7 10 12 10 10 9 9 9 9 9 9 9 10 10 10 11 10 9 9 9 13 13 13 12 11 10 9 7 6 4 4 2 2 1 1 1 1
9 9 7 8 6 7 9 10 10 13 11 9 9 10 10 11 12 11 10 10 11 12 12 10 8 7 9 15 15 14 14 13 11 11 8 7 6 4 4 3 2 2 2
11 9 9 8 8 7 8 10 8 9 11 10 7 8 10 10 12 13 11 11 13 10 12 13 13 12 9 9 12 16 14 15 14 13 12 9 8 7 6 5 5 5 4
12 11 11 10 10 8 7 9 9 10 8 6 12 7 7 9 8 7 13 11 13 11 11 12 14 13 13 10 9 11 12 12 12 12 13 12 11 10 8 8 7 6 6
13 12 13 13 12 10 11 9 8 9 9 10 7 12 14 16 5 7 6 9 11 12 13 10 12 13 14 11 13 12 18 16 15 14 13 13 13 12 11 10 9 8 7
15 14 13 13 13 11 12 13 12 11 9 10 9 7 11 10 14 10 11 8 7 9 10 11 11 11 14 13 11 13 15 17 17 16 16 14 14 13 12 12 11 10 9
12 14 15 14 13 13 14 13 13 13 11 11 10 9 9 8 12 9 9 14 12 10 10 10 11 11 11 12 14 15 20 20 19 18 18 16 15 14 13 13 13 12 11
13 14 15 15 13 15 14 14 15 14 13 12 13 10 9 9 10 8 10 10 12 11 7 9 10 11 11 11 13 17 18 21 20 20 19 18 17 16 15 15 14 13 13
14 17 16 17 18 17 16 15 13 13 14 12 14 12 10 11 8 11 11 7 10 12 11 11 10 11 11 11 13 20 15 22 21 20 19 17 16 17 16 17 16 15 14
15 18 19 20 19 18 17 17 13 16 15 14 13 13 11 11 10 10 11 8 12 10 14 13 11 12 11 11 13 14 16 20 22 20 18 17 16 18 17 16 15 15 16
20 19 19 21 20 18 17 17 15 16 17 13 11 13 12 10 11 10 10 9 10 13 11 13 10 9 11 10 12 15 15 14 21 20 18 17 16 17 17 16 16 16 16
21 20 19 20 19 18 17 15 17 18 18 16 16 15 14 13 10 10 9 9 9 10 11 12 12 9 11 12 10 11 12 13 12 21 19 16 15 16 16 15 15 17 17
21 19 19 19 19 17 17 16 17 17 18 17 17 16 16 11 13 12 11 12 10 12 8 12 12 10 12 13 13 13 11 11 12 18 21 18 17 18 17 16 15 16 16
21 21 20 19 19 17 16 16 16 17 18 18 18 17 16 15 14 11 12 12 11 9 11 8 11 10 9 9 11 11 12 11 10 10 18 19 18 18 17 17 16 16 17
21 21 21 19 17 16 18 17 16 17 16 15 16 16 16 16 16 14 13 13 12 11 10 8 6 8 10 9 10 11 11 10 10 10 13 13 17 20 20 20 19 19 19
20 18 19 18 16 15 14 14 18 17 17 17 18 17 17 20 22 19 12 13 13 11 10 10 7 9 12 11 13 11 11 10 11 10 10 10 10 11 13 19 18 21 20
19 18 18 18 16 12 21 23 20 18 16 16 17 17 17 21 21 25 25 25 20 12 15 11 9 13 17 10 11 11 11 10 9 9 11 11 9 11 10 10 14 17 19
20 21 20 17 17 19 23 24 24 17 16 16 17 16 15 14 18 17 19 23 24 26 25 14 12 15 14 13 12 15 14 12 11 6 10 10 9 10 9 10 13 15 17
20 18 19 18 16 16 22 21 22 19 17 18 18 17 18 18 17 16 13 13 15 16 16 14 13 14 13 10 12 12 11 13 9 8 9 9 8 11 9 9 13 16 19
15 17 16 16 18 17 22 23 20 16 14 18 17 18 19 20 21 21 14 15 16 14 14 23 26 21 20 14 11 8 11 10 9 9 10 9 9 9 9 9 9 17 20
13 11 16 15 21 16 20 22 19 13 15 13 17 18 23 20 23 23 16 14 16 15 12 13 14 19 16 14 17 14 9 10 9 7 9 10 9 6 4 6 8 8 10
Wind_Direction
266 261 254 249 248 245 240 230 228 229 235 240 245 247 241 229 229 226 242 156 234 241 233 237 265 279 305 144 98 76 86 81 62 57 188 194 202 213 212 211 211 210 211
270 296 279 266 257 253 255 243 235 230 234 232 230 236 245 240 235 230 226 183 203 223 228 233 240 246 260 231 78 95 122 98 99 90 80 76 83 62 75 105 355 251 215
332 310 273 279 274 256 256 258 255 245 244 239 242 227 221 229 224 223 222 228 188 208 225 228 229 235 237 213 207 187 182 163 139 118 116 110 80 76 72 78 48 31 209
292 289 280 264 269 272 268 253 247 248 247 237 234 232 232 223 226 222 217 217 219 232 194 220 220 225 224 223 218 220 216 196 183 167 153 124 98 82 82 88 68 36 57
343 304 269 273 279 277 262 254 250 246 248 242 240 242 233 231 229 226 219 214 217 219 218 183 212 217 220 222 222 221 218 213 203 196 185 173 171 158 154 95 95 88 60
340 332 320 300 270 263 261 267 254 253 248 252 250 241 235 232 234 233 230 218 216 216 218 219 198 210 215 218 219 220 214 217 209 204 203 202 205 205 206 213 204 119 105
325 323 321 313 306 272 264 262 269 250 252 246 260 249 247 241 227 227 225 229 216 212 216 214 216 219 193 216 219 219 221 210 217 210 208 214 213 220 222 214 224 238 234
314 306 310 310 306 296 277 262 258 265 249 243 239 258 255 225 231 229 220 223 224 211 216 214 214 215 217 203 208 216 220 223 213 211 209 216 220 216 227 227 230 241 252
308 299 302 302 301 298 289 286 254 237 248 262 223 234 233 242 231 199 223 219 222 215 217 217 219 217 215 214 200 203 216 212 229 232 222 215 220 224 224 230 233 237 247
296 290 295 296 296 293 285 280 266 255 228 245 235 236 257 274 249 198 202 218 225 219 213 215 219 218 218 216 207 212 193 206 214 226 225 230 227 230 227 227 235 240 240
285 286 285 289 290 288 286 283 281 268 239 246 240 231 225 245 256 271 253 185 207 227 223 210 208 218 216 216 214 209 202 202 207 216 222 228 227 230 238 230 232 234 235
282 279 280 285 288 282 281 278 272 267 267 251 245 247 245 227 234 226 239 251 240 203 213 217 208 211 217 215 216 207 197 206 208 212 218 223 225 229 233 236 233 233 234
279 280 275 279 284 286 275 276 272 266 262 258 256 243 235 245 259 239 236 238 252 237 203 225 216 208 211 215 215 205 198 205 206 211 213 219 224 227 233 236 238 241 245
285 287 285 282 278 277 276 268 268 256 260 263 261 257 252 241 225 233 241 229 244 246 244 222 213 213 208 210 218 190 205 206 206 207 211 216 218 225 231 236 238 243 248
282 278 280 277 269 269 271 271 266 260 258 259 260 258 252 253 240 235 241 232 241 244 240 219 235 213 213 206 210 206 215 194 206 205 207 210 216 222 225 231 237 244 249
283 283 285 274 265 259 261 264 263 257 258 261 260 259 261 260 253 247 224 235 239 238 256 258 230 215 215 209 194 211 213 191 200 204 204 209 208 215 225 231 240 247 252
282 279 281 276 262 258 257 257 258 258 257 259 263 262 259 263 262 255 247 230 230 230 235 253 268 222 216 214 194 205 213 207 202 209 201 199 206 219 226 230 239 247 251
281 280 280 272 262 257 256 257 254 258 258 256 259 256 261 258 257 254 247 239 232 234 225 245 247 243 225 218 203 189 208 210 218 198 209 206 209 216 219 228 236 243 249
283 283 274 268 259 258 257 255 254 259 258 258 256 255 262 263 262 257 251 245 237 235 225 216 239 265 218 222 213 195 199 211 217 195 207 216 216 216 222 228 232 238 241
283 282 274 269 264 268 262 257 252 255 256 254 256 254 259 261 262 261 257 251 234 234 227 216 221 246 235 214 231 195 191 207 212 211 216 227 216 223 229 235 237 233 234
286 283 281 274 263 245 253 252 269 242 239 242 248 253 258 262 266 263 265 256 240 231 228 222 208 226 220 209 219 201 199 194 214 218 220 222 220 225 232 236 241 233 234
290 284 280 276 266 258 259 259 239 256 241 243 246 248 252 258 257 254 253 249 255 220 231 227 211 216 223 210 210 208 204 201 203 202 221 234 220 230 235 232 234 230 228
283 278 274 272 266 263 257 259 250 241 249 251 253 252 253 253 249 251 249 249 247 245 225 225 220 216 222 214 209 211 196 201 205 175 201 235 221 233 232 231 222 222 225
280 279 276 267 261 261 258 254 248 244 246 253 254 257 259 258 254 248 241 254 256 244 223 219 217 220 239 227 216 220 201 199 207 208 181 241 235 241 238 238 214 218 228
282 270 273 268 264 257 253 246 247 245 247 253 258 258 258 258 256 249 243 240 252 250 233 218 220 215 226 245 228 205 205 188 205 210 205 232 250 245 246 244 241 209 218
273 280 267 267 260 258 260 260 249 249 253 255 259 257 253 249 254 246 246 243 242 246 240 236 216 214 213 224 218 209 197 195 205 223 213 212 229 231 248 237 239 241 210